Tracking 19170 objects as of 22-May-2018
HD Live streaming from Space Station
objects crossing your sky now

FENGYUN 1C DEB

Track FENGYUN 1C DEB now!
10-day predictions


NORAD ID: 30053
Int'l Code: 1999-025PE
Perigee: 697.0 km
Apogee: 1,261.2 km
Inclination: 98.6 °
Period: 104.5 minutes
Semi major axis: 7350 km
RCS: 0.0436 m2 (small)
Launch date: May 10, 1999
Source: People's Republic of China (PRC)
Launch site: Taiyaun Space Center, China (TSC)

Note: This is SATELLITE DEBRIS
aabbcc
Your satellite tracking list
Your tracking list is empty




NASA's NSSDC Master Catalog

Two Line Element Set (TLE):
1 30053U 99025PE  18141.61920837 +.00000266 +00000-0 +17855-3 0  9990
2 30053 098.5920 145.1785 0383820 289.0129 187.5200 13.77733277568315
Source of the keplerian elements: AFSPC